Home > Weather > U.S.A. > Milwaukee > Past weeks

Flag for U.S.A. Weather past 2 weeks in Milwaukee, Wisconsin, U.S.A.

32 °F

Rain. Mostly cloudy.

Feels Like: 32 °F
Forecast: 30 / 36 °F
Wind: No wind

Location: Milwaukee / Timmerman

Current Time: Dec 1, 2015 at 11:20:51 PM

Latest Report: Dec 1, 2015 at 10:15 PM

Visibility: 2 mi

Pressure: 29.79 "Hg

Humidity: 93%

Dew point: 30 °F

Location of MilwaukeeLocation

Historic Weather in Milwaukee — Graph


Milwaukee temperature yesterday

Maximum temperature yesterday: 43 °F (at 4:45 PM)
Minimum temperature yesterday: 34 °F (at 12:35 AM)
Average temperature yesterday: 38 °F

Past Weeks' High & Low Weather Summary

High61 °F (Nov 18, 11:45 AM)100% (Nov 27, 5:35 AM)30.49 "Hg (Nov 27, 5:35 AM)
Low12 °F (Nov 22, 6:45 AM)28% (Nov 20, 12:45 PM)29.39 "Hg (Nov 18, 1:45 PM)
Average36 °F75%30.09 "Hg
* Reported Nov 16 8:15 PM — Dec 1 8:45 PM, Milwaukee, Weather by CustomWeather, © 2015

Note: Actual official high and low records may vary slightly from our data, if they occured in-between our weather recording intervals... More about our weather records


Milwaukee weather history for previous 24 hours

Time TempWeatherWind HumidityBarometerVisibility
8:45 PM
Tue, Dec 1
36 °FLight rain. Mostly cloudy.3 mph75%29.80 "Hg10 mi
8:15 PM36 °FMostly cloudy.7 mph75%29.81 "Hg10 mi
7:45 PM37 °FMostly cloudy.6 mph65%29.81 "Hg10 mi
6:45 PM37 °FMostly cloudy.6 mph65%29.81 "Hg10 mi
5:45 PM37 °FOvercast.9 mph65%29.81 "Hg10 mi
4:45 PM37 °FMostly cloudy.8 mph65%29.81 "Hg10 mi
3:45 PM37 °FOvercast.12 mph65%29.79 "Hg10 mi
2:45 PM37 °FMore clouds than sun.14 mph60%29.78 "Hg10 mi
1:45 PM37 °FPartly sunny.14 mph65%29.78 "Hg10 mi
12:45 PM37 °FPartly sunny.12 mph65%29.78 "Hg10 mi
11:45 AM37 °FPartly sunny.12 mph70%29.78 "Hg10 mi
10:45 AM37 °FOvercast.15 mph70%29.79 "Hg10 mi
9:45 AM39 °FMostly cloudy.14 mph81%29.78 "Hg10 mi
8:50 AM39 °FMostly cloudy.13 mph87%29.78 "Hg10 mi
7:45 AM41 °FMore clouds than sun.12 mph87%29.76 "Hg10 mi
6:45 AM43 °FLight rain. Fog.9 mph87%29.76 "Hg5 mi
6:15 AM41 °FFog.6 mph87%29.76 "Hg4 mi
5:55 AM41 °FMostly cloudy.6 mph93%29.76 "Hg7 mi
5:35 AM41 °FFog.7 mph87%29.76 "Hg5 mi
5:15 AM41 °FDrizzle. Low clouds.8 mph87%29.77 "Hg4 mi
4:55 AM41 °FDrizzle. Low clouds.6 mph87%29.77 "Hg4 mi
4:35 AM41 °FRain. Low clouds.7 mph87%29.78 "Hg4 mi
4:15 AM41 °FLight rain. Low clouds.7 mph87%29.79 "Hg7 mi
3:55 AM41 °FRain. Low clouds.7 mph87%29.80 "Hg7 mi
3:35 AM41 °FHeavy rain. Low clouds.6 mph87%29.80 "Hg3 mi
3:15 AM41 °FLight rain. Low clouds.12 mph87%29.83 "Hg2 mi
2:55 AM41 °FRain. Low clouds.13 mph87%29.83 "Hg4 mi
1:55 AM39 °FLow clouds.9 mph87%29.83 "Hg7 mi
1:15 AM39 °FFog.9 mph87%29.86 "Hg4 mi
12:55 AM39 °FDrizzle. Mostly cloudy.8 mph87%29.88 "Hg3 mi
12:15 AM37 °FRain. Low clouds.8 mph93%29.90 "Hg4 mi
11:55 PM
Mon, Nov 30
37 °FDrizzle. Mostly cloudy.8 mph93%29.91 "Hg5 mi
11:35 PM37 °FLow clouds.9 mph93%29.91 "Hg7 mi
11:15 PM37 °FDrizzle. Mostly cloudy.8 mph93%29.91 "Hg7 mi
Weather by CustomWeather, © 2015

See weather overviewHow to use our weather pages